Location: Newark
(7.0858°N, 171.3717°E)
Time: 13:26:55
(UTC+00:00)

Vanguard 1 Rocket - Pass Details

Date: 03 December 2020
Orbit: 655 x 4222 km, 34.3° (Epoch: 23 January)

Event Time Altitude Azimuth Distance (km) Brightness Sun altitude
Rises 09:08:14 0° 225° (SW) 5,518 12.2 -40.4°
Reaches altitude 10° 09:11:11 10° 222° (SW) 4,877 11.7 -41.1°
Maximum altitude 09:26:55 72° 139° (SE) 3,570 10.0 -44.7°
Enters shadow 09:28:51 70° 111° (ESE) 3,717 10.0 -45.1°
